COSMOS 1897 DEB, 44572

Orbit data source: Space-Track

COSMOS 1897 DEB, 44572 is space debris in GEO originally from a launch on Thu, 26 Nov 1987 UTC launched from the Tyuratam Missile And Space Complex (TTMTR). Debris objects in space refer to the collection of defunct objects orbiting the Earth. Examples of debris include non-operational satellites, rocket bodies, and fragments generated from explosions, collisions, or faulty payload assembly.

Loading next visibility...
Identifier
44572, 1987-096G
Orbit
GEO
Country
Flag of CISCIS
Related business
Manufacturer
NPO PM
Mission
Spacecraft
Bus & Motor
Unknown
Mass
Unknown
Launch date (UTC)
1987-11-26 (39 years ago)
Launch vehicle
Unknown
Launch site
Tyuratam Missile And Space Complex (TTMTR)
Object type
Payload
Rocket body
Debris
Shape & HBR
Unknown shape, 1.1 m
Radar Cross Section
Medium (>0.1 m² and <1 m²)

Expand to show TLE details & history
Last TLE update: 2 days ago

TLE from 2 days ago
0 COSMOS 1897 DEB
1 44572U 87096G   26171.17919829 -.00000309  00000-0  00000-0 0  9998
2 44572  10.8651 326.3190 0018577 289.3154  14.6109  1.00472333 71012
Epoch: 2026-06-20T04:18Z
TLE epoch observation values (Epoch: 2026-06-20T04:18:02.732Z)
Latitude
-9.01418°
Longitude
-62.13535°
Altitude
35,655.66 km
Speed
3.082 km/s
True Right ascension
18h 03m 05s
True Declination
-9° 00' 19"
Sunlit
Object was in daylight at epoch
Visualization orbit readout
Latitude
Unknown
Longitude
Unknown
Altitude
Unknown
Speed
Unknown
Apparent Right ascension
Unknown
Apparent Declination
Unknown
Sunlit
N/A
Visualization observer readout
Local Sidereal Time
23:18:54
Azimuth
Unknown
Elevation
Unknown
Doppler factor
Unknown
Orbital elements
Apogee altitude
35,809.711 km
Perigee altitude
35,653.257 km
Semi-major axis
42,109.621 km
Eccentricity
0.00186
Inclination
10.8651°
RAAN
326.319°
Arg. of periapsis
289.3154°
True anomaly
14.66472°
Mean anomaly
14.6109°
Eccentric anomaly
14.6378°
Mean motion
0.25117 °/min
Orbital period
1,433.28 mins
BSTAR
0
Loading maneuver chart data...
Computing Atmospheric mass density...
Loading historical data...
Loading historical data...
Loading historical data...
Loading historical data...
Loading historical data...
Loading historical data...
Loading historical data...

Documentation

Showing up to 5 results
|